sat.trackr.live / text

‹ back to catalog

LEMUR-2-SEJONG-2

NORAD 64586 · 2025-135BL

PAYLOAD ACTIVE UNKNOWN

§ Identity

Operator
Country
US
Launch date
2025-06-23
Launch site
AFWTR
Launch vehicle
Mass (kg)
RCS (m²)

Purposes: earth_obs

External: N2YO · Heavens-Above · Gunter

§ Orbital elements

Epoch: 2026-09-19T22:47:32.924832Z

Period
96.17 min
Inclination
97.7775°
Eccentricity
0.0005021
Mean motion
14.97374642 rev/d
Perigee alt
571.5 km
Apogee alt
578.5 km
Semi-major
6,953.1 km
B*
2.5260e-4
RAAN
17.4070°
Arg perigee
30.6225°
Mean anomaly
329.5289°
Rev number
6,812

§ Raw data

LEMUR-2-SEJONG-21 64586U 25135BL  26262.94968663  .00002876  00000+0  25260-3 0  99942 64586  97.7775  17.4070 0005021  30.6225 329.5289 14.97374642 68120

JSON: /api/v1/satellites/64586 · /tle

For live sub-satellite position, see the globe view (requires WebGL).

§ Visibility from observer

Set your observer location to see the next 7 days of passes ≥ 10°. The values pass through the URL so the page stays shareable.

No JS? Fill the form by hand. The geolocation button needs JavaScript.